SHIJIAN-25 (SJ-25)

Last updated on Mon Oct 20 2025 00:02:51 GMT+0000 (Coordinated Universal Time)

1 62485U 25002A 25292.75125119 -.00000343 00000+0 00000+0 0 9994 2 62485 4.5723 62.6229 0055776 167.6795 196.8814 1.00279406 2958
UTC large
Height (km)
Speed (km/s)
/
Latitude / Longitude
Inclination (degrees)
Orbital Period (minutes)
Azimuth
Elevation
Range (km)
Doppler Factor

Next 0 passes for location: London (51.5072 / 0.1276)

Sorry there are no passes over London.